Vorticity
9 8 6 7 9 12 16 13 12 11 12 10 8 7 8 7 7 7 7 7 8 8 8 9 10 11 12 11 11 11 11 12 12 13 14 15 14 14 13 13 13 14 14 15 15 15 14 13 13 12 11 11 10 10 10 10 10 10 10 10 10 10 10 10 11 11 11 11 11 12 12 12 12 12 12 11 11 11 12 12 13 14 16 17 18 18
10 10 8 7 7 8 8 8 8 10 12 14 13 12 11 9 7 6 6 6 6 6 6 7 8 10 11 11 12 12 12 12 12 12 13 13 14 14 13 13 13 13 13 13 13 13 13 13 12 11 11 10 10 10 10 10 10 10 10 10 10 10 10 11 11 11 12 12 12 12 12 12 12 12 12 12 12 11 11 11 11 12 12 14 15 16
8 8 7 6 6 6 2 3 6 9 12 14 16 17 16 14 11 9 6 6 6 5 4 4 5 6 7 9 11 12 13 12 12 12 12 12 13 13 13 13 12 12 12 12 12 12 12 12 11 11 11 10 10 10 10 10 10 10 10 10 10 11 11 11 12 12 12 13 13 13 13 13 13 13 13 13 13 13 12 12 12 12 11 12 12 13
8 7 4 2 3 4 0 -1 1 5 9 11 13 14 15 15 13 10 7 7 7 6 5 4 2 2 3 5 7 9 11 12 11 11 11 11 12 12 12 12 11 11 10 10 10 11 11 11 11 10 10 10 10 10 10 10 10 10 10 10 10 11 11 11 12 12 12 12 13 13 13 14 14 14 14 14 14 14 14 14 13 13 13 12 12 12
9 10 8 1 -1 -1 -2 -1 -0 1 3 4 5 6 8 9 10 9 7 7 7 7 8 6 3 0 -1 0 3 6 8 10 10 11 11 11 11 11 11 10 10 10 9 9 9 9 9 9 10 10 10 9 10 10 10 10 10 10 10 10 10 10 10 10 11 11 11 11 12 12 12 13 13 13 14 14 14 15 15 15 15 15 14 14 13 13
11 12 12 6 1 -3 -6 -4 -3 -2 -2 -1 -1 -0 1 3 4 5 6 6 7 8 9 10 8 4 0 -1 -0 3 6 8 10 10 10 10 10 10 10 10 10 9 9 8 8 8 8 8 8 8 8 8 8 8 8 8 8 9 9 9 9 9 9 9 9 10 10 10 10 10 10 10 11 11 12 12 13 13 14 14 15 15 15 15 14 14
11 12 13 11 6 1 -3 -4 -5 -5 -5 -4 -4 -3 -2 -0 1 3 6 7 7 8 9 11 12 11 7 2 -0 0 4 6 8 10 10 10 10 10 11 11 11 10 10 9 8 7 7 7 7 7 7 7 7 7 7 7 7 8 8 8 8 8 8 8 8 8 9 9 9 8 8 8 9 9 9 9 10 10 11 12 13 13 14 14 14 14
9 10 11 11 9 6 3 0 -1 -3 -4 -4 -4 -4 -2 -0 2 5 8 8 8 8 7 9 11 11 10 5 1 -0 2 5 7 9 10 10 10 10 10 11 11 11 11 10 10 9 8 7 7 7 7 7 7 7 7 6 6 7 7 7 7 7 7 8 8 8 8 8 8 8 8 8 7 7 7 7 7 8 8 9 10 10 11 12 13 13
9 9 9 10 10 10 8 6 4 3 2 1 -0 -1 0 2 4 5 6 7 7 7 5 4 4 4 5 3 1 -1 -0 3 6 8 10 11 11 10 10 10 10 11 12 12 11 11 10 9 9 8 8 7 7 6 6 6 6 6 6 6 6 7 7 7 7 7 7 7 7 7 7 7 7 7 7 7 6 6 6 7 7 7 8 9 10 11
10 10 9 10 11 12 11 10 9 8 7 7 6 5 4 4 5 5 4 5 5 5 4 1 -1 -2 -2 -1 -2 -2 -1 2 4 7 10 11 11 10 9 9 10 11 12 12 12 13 13 12 11 10 9 8 8 7 6 6 6 6 6 6 6 6 6 6 7 7 7 7 7 7 7 7 7 7 7 7 7 6 6 6 6 6 6 6 7 8
9 10 10 10 11 12 12 11 10 10 9 10 10 9 8 7 5 3 2 2 2 2 3 2 1 -1 -2 -1 -1 -0 1 3 4 6 9 11 11 10 8 8 9 11 12 13 13 13 14 14 13 12 11 10 9 8 7 6 6 6 6 6 6 6 6 6 6 6 6 6 6 7 7 7 7 7 7 7 7 7 7 6 6 6 6 5 6 6
8 9 10 10 10 11 12 13 13 12 12 11 10 8 8 7 6 4 2 2 2 3 4 4 4 4 4 4 4 5 4 4 5 7 9 12 12 10 7 6 8 10 13 13 13 13 14 14 14 13 13 11 10 9 8 7 7 6 6 6 6 5 5 5 5 5 6 6 6 6 7 7 7 8 8 8 8 8 8 7 7 6 6 6 6 6
6 6 6 7 7 8 9 10 12 13 14 12 10 8 7 6 5 5 5 4 5 6 7 8 9 9 7 7 7 6 5 4 4 6 10 13 13 10 7 5 6 9 13 14 13 13 13 14 14 14 13 12 12 10 10 9 8 7 6 6 6 5 5 5 5 5 5 6 6 6 7 7 8 8 8 8 9 8 8 8 8 8 7 7 7 7
6 4 3 3 3 3 4 6 7 8 8 8 8 8 8 8 7 7 6 6 6 8 10 10 10 11 10 7 6 4 3 2 3 6 10 13 13 10 6 3 4 6 11 14 14 14 13 13 13 13 13 13 12 12 10 10 9 8 8 7 7 6 6 6 5 6 6 6 6 7 7 7 8 8 9 9 9 9 9 9 9 9 9 9 9 9
7 6 4 3 2 2 1 2 3 2 2 2 3 6 7 8 8 7 5 4 6 9 11 12 12 12 9 4 2 1 1 1 2 6 11 14 13 10 6 3 2 4 8 12 14 15 13 13 12 13 13 13 12 12 11 11 10 10 9 9 8 8 7 7 7 7 7 7 7 7 8 8 8 8 9 9 9 9 10 10 10 10 11 11 11 11
8 7 7 6 5 4 4 3 3 2 0 0 2 3 4 3 1 0 -0 2 6 10 12 13 12 9 7 1 -0 0 0 0 2 6 12 15 13 9 5 3 3 3 6 12 14 15 14 13 12 12 12 12 12 12 11 11 11 11 10 10 10 10 10 10 9 9 9 9 9 9 9 9 9 8 8 9 9 9 9 10 10 11 12 12 12 13
9 9 8 7 7 6 6 6 6 5 4 4 4 5 6 2 -1 -3 -3 1 6 11 13 10 4 -3 -9 -8 -5 -1 -0 0 4 9 14 14 10 6 4 3 4 5 8 12 14 15 13 13 12 12 12 11 11 11 11 11 11 11 11 11 11 11 11 11 11 11 11 11 11 10 10 10 10 9 9 9 9 9 9 9 10 10 11 12 13 13
11 11 10 9 8 8 8 8 8 8 7 7 7 7 8 7 5 3 3 6 9 11 10 5 -0 -5 -8 -11 -10 -7 -3 1 6 11 14 11 6 3 3 3 3 5 9 12 14 14 12 12 11 11 11 11 11 10 10 10 10 10 10 10 10 10 10 10 11 11 11 11 11 10 10 10 10 9 9 9 8 8 8 8 8 9 9 10 11 12
13 13 12 12 11 10 10 10 10 9 9 9 9 9 9 9 9 9 10 13 14 13 7 4 2 1 3 -2 -4 -3 2 6 10 13 13 8 4 1 3 3 4 7 10 13 14 13 11 10 10 10 11 10 10 10 9 9 9 9 9 9 9 9 9 9 10 10 10 10 9 9 9 9 8 8 8 7 7 7 7 7 7 8 8 9 10 11
14 14 14 14 14 14 13 12 12 11 11 12 12 12 12 13 14 15 16 16 16 12 7 5 2 2 5 5 6 8 13 13 14 14 12 7 3 2 2 5 8 10 13 14 14 12 11 10 10 10 10 10 10 9 9 9 8 8 8 8 8 8 8 8 8 8 8 8 8 8 8 7 7 6 6 6 6 6 6 6 7 7 8 8 9 10
15 15 16 16 16 16 16 16 16 15 15 15 14 14 15 16 16 17 16 13 10 6 4 5 4 4 8 12 16 18 18 15 14 12 7 6 4 3 5 8 11 14 16 15 13 12 10 10 10 10 10 10 10 10 9 9 9 8 8 9 9 8 8 8 8 8 8 8 7 7 6 6 6 5 5 5 5 5 6 6 6 7 7 8 9 10
14 15 16 16 16 16 17 18 18 18 17 16 16 17 16 16 16 16 13 11 8 6 5 8 10 12 17 20 21 20 17 15 12 8 4 4 4 5 8 12 15 16 16 14 13 11 9 9 9 9 10 10 10 10 10 10 9 9 9 9 9 9 9 9 8 8 8 8 7 6 6 6 5 5 5 5 5 6 6 6 6 7 7 8 8 9
12 13 14 14 14 15 15 15 15 15 14 14 14 15 14 14 14 13 12 13 12 12 13 16 18 21 25 25 23 20 16 15 11 7 5 6 6 8 13 16 17 17 15 13 12 11 9 9 9 9 10 10 10 10 11 10 10 10 10 10 10 10 10 9 9 8 8 7 7 6 6 6 6 6 6 6 6 6 6 6 7 7 7 7 8 9
12 12 12 12 13 13 12 11 11 10 10 10 10 10 11 11 11 11 11 12 12 13 14 16 18 20 23 24 23 19 12 10 8 6 6 7 8 10 16 18 18 16 13 12 11 11 10 9 9 10 10 10 11 11 12 11 11 11 11 11 11 10 10 10 9 8 8 7 7 6 6 6 6 6 6 6 6 6 7 7 7 7 7 7 8 8
10 11 11 11 10 10 10 9 8 7 6 7 7 8 9 11 12 13 13 13 12 12 11 12 14 15 14 14 14 12 8 6 5 5 5 5 8 11 15 17 16 15 13 12 12 11 11 10 10 10 10 11 11 12 12 12 12 12 11 11 11 11 10 10 9 8 8 7 7 7 7 7 7 7 7 7 7 7 7 7 7 7 7 7 7 8
8 8 9 8 8 8 8 7 6 6 6 6 7 8 9 10 12 14 15 14 13 11 10 12 13 13 10 10 9 7 2 3 3 4 4 4 7 12 14 14 14 13 12 13 13 13 12 12 11 11 10 10 11 12 12 12 12 12 12 11 11 10 10 9 8 8 7 7 7 7 7 7 7 7 7 7 7 7 7 7 7 7 6 6 7 7
8 8 7 7 7 6 6 6 6 5 5 6 7 8 9 10 12 14 14 11 8 7 7 9 9 9 8 10 9 5 -1 -1 0 2 4 4 8 12 14 13 12 11 12 12 13 13 13 13 12 11 10 11 11 11 12 12 12 12 12 11 10 10 9 8 8 8 7 7 7 7 8 8 8 8 8 8 8 8 8 8 7 7 7 7 7 7
10 9 8 7 7 6 6 5 4 4 4 4 6 7 10 12 15 18 17 12 8 6 6 6 4 3 3 3 2 -0 -3 -4 -3 -0 4 7 9 12 12 11 10 10 12 12 13 13 12 12 12 12 11 11 11 11 11 12 12 11 11 10 9 8 8 8 7 7 7 7 8 8 8 8 8 8 8 8 8 8 8 8 8 8 7 7 7 7
12 11 10 9 8 7 6 5 4 3 3 4 5 6 9 12 17 21 18 15 11 8 7 5 3 1 -0 -3 -4 -3 -1 -2 -1 2 8 10 11 11 11 9 9 9 11 13 14 12 9 10 11 12 12 11 11 10 11 11 11 10 10 9 8 7 7 7 7 7 7 7 7 8 8 8 8 8 8 8 8 8 8 8 8 8 7 7 7 7
12 12 11 11 10 10 8 7 5 4 3 4 4 5 7 10 14 16 15 16 15 13 10 8 6 4 2 0 -0 0 1 3 6 9 12 12 11 10 9 7 6 8 10 14 15 13 7 8 9 11 11 11 10 10 10 10 9 9 8 7 7 7 7 6 7 7 7 7 7 7 7 8 8 8 8 8 9 8 8 8 8 8 8 7 7 7
14 14 14 13 12 12 11 10 7 6 5 5 5 5 5 7 9 10 11 14 15 13 12 11 10 10 10 9 8 6 6 8 11 13 13 11 9 8 7 6 6 6 8 12 14 15 13 12 11 10 10 10 10 9 9 9 8 8 7 7 6 6 6 6 6 7 7 7 7 7 7 7 7 8 8 8 8 8 8 8 8 8 8 8 8 7
16 16 16 16 15 15 15 14 12 11 9 8 8 7 6 6 7 8 10 11 12 11 8 10 10 11 12 11 10 9 10 11 13 13 12 10 8 7 6 6 6 7 7 7 9 13 16 16 14 12 10 10 10 9 9 8 7 7 6 6 6 6 6 7 7 7 7 7 7 7 7 7 7 7 8 8 8 8 8 8 8 8 8 8 8 8
16 16 16 17 17 18 18 18 17 16 15 13 12 10 10 9 9 10 10 11 12 12 9 7 6 6 7 6 5 5 7 9 11 12 12 10 9 9 7 6 7 8 10 8 7 8 10 13 13 12 9 9 9 9 8 7 7 6 6 6 6 6 7 7 7 7 7 7 7 8 8 8 8 8 8 8 8 8 8 8 9 9 9 9 9 9
15 16 16 16 17 18 18 19 19 19 18 17 16 14 13 13 13 12 12 12 13 14 13 10 7 5 5 4 3 3 3 7 10 12 12 10 10 10 10 8 8 10 12 11 10 8 7 8 10 10 8 7 7 7 7 7 7 7 6 6 7 7 7 7 7 7 7 8 8 8 8 8 8 8 8 8 9 9 9 9 9 9 10 10 10 9
15 15 15 16 16 16 17 18 18 18 18 17 16 16 15 15 15 15 15 14 14 14 14 14 13 11 8 8 8 8 8 11 13 14 12 11 12 12 11 9 10 11 11 11 11 11 9 9 8 8 9 8 6 6 6 6 7 7 7 7 7 7 7 7 7 7 7 7 8 8 8 9 9 9 9 9 10 9 9 9 9 9 10 10 10 10
16 16 16 16 16 16 16 16 16 16 16 16 16 16 16 16 16 16 17 17 16 16 15 15 14 14 14 13 12 13 14 16 16 15 13 12 12 13 12 11 11 11 10 11 10 10 9 9 8 8 8 8 7 6 4 6 7 7 7 7 8 8 8 8 8 8 8 8 8 8 8 8 9 9 10 10 10 10 10 10 10 10 10 10 10 11
15 15 15 15 15 15 15 15 14 15 15 15 15 16 16 16 16 16 17 17 17 17 17 16 15 14 14 14 14 14 16 16 14 13 12 12 11 11 11 12 11 11 10 10 10 9 8 8 8 7 7 7 8 8 7 7 7 7 7 8 8 8 9 9 9 9 9 8 8 8 8 8 9 9 9 9 10 10 10 10 10 10 10 10 11 11
13 13 13 13 14 14 14 14 13 13 14 14 14 14 14 15 15 15 15 16 16 16 16 17 17 16 16 15 14 14 14 13 12 12 11 11 10 10 10 11 11 10 9 9 9 8 8 8 8 8 7 7 8 8 8 8 8 7 7 8 8 9 9 10 10 10 9 9 9 9 9 9 9 9 9 9 10 10 10 10 11 11 11 11 11 11
10 10 10 11 11 11 12 12 12 12 12 12 12 12 12 13 13 13 13 14 14 14 14 15 15 16 16 16 15 15 14 14 13 12 11 11 11 10 10 10 10 10 9 8 8 8 7 8 8 8 8 8 8 8 9 9 8 8 8 8 8 9 10 10 10 10 10 10 10 10 10 10 10 10 10 10 10 10 10 10 10 10 10 10 10 11
9 9 8 8 9 9 9 9 10 10 10 10 10 10 11 11 11 12 12 12 12 12 12 12 12 13 13 13 13 13 14 13 13 13 12 12 11 10 10 10 10 10 9 8 8 8 8 8 8 8 8 9 9 10 10 10 10 10 10 10 9 8 8 9 9 10 10 10 10 10 10 10 10 10 10 10 10 10 10 10 10 10 10 10 10 10
8 8 8 8 8 8 8 8 8 9 9 9 9 9 9 10 10 10 10 10 10 10 11 11 11 11 11 11 11 11 11 12 12 12 11 11 10 10 9 9 9 9 9 9 8 8 8 8 9 9 9 9 10 10 10 10 10 11 11 10 10 9 7 8 8 9 9 10 10 10 10 10 10 10 10 11 11 11 11 10 10 10 10 10 11 10
8 8 8 8 8 8 8 8 8 8 8 8 8 8 8 8 8 8 9 9 9 9 9 10 10 10 10 10 10 9 9 10 10 10 10 10 10 9 9 9 9 9 9 9 9 9 8 9 9 10 10 10 10 10 10 10 10 11 11 11 12 11 9 8 8 9 9 9 10 10 10 10 10 10 10 10 10 11 11 11 11 10 10 11 11 12
8 8 9 8 8 8 8 8 8 8 8 8 8 8 8 8 8 8 8 8 8 8 8 8 8 9 9 10 9 9 8 8 9 9 9 9 9 9 9 9 9 9 9 9 9 9 9 9 9 9 10 10 10 10 10 10 10 10 10 12 13 13 11 10 9 9 9 9 10 10 10 10 10 10 10 10 10 10 10 11 11 11 11 10 11 11
9 9 9 9 9 9 9 9 9 9 9 8 8 8 8 8 8 8 8 8 8 8 8 8 8 8 8 9 9 9 9 8 8 8 9 9 9 9 9 9 9 9 9 9 10 10 10 9 8 9 9 10 10 10 10 10 10 10 10 10 11 11 11 11 10 9 8 8 9 9 9 9 9 9 9 9 9 10 10 10 11 11 11 11 11 11
10 10 10 10 10 10 9 9 9 10 9 9 9 9 9 9 9 9 9 9 8 8 8 8 9 9 9 9 9 9 10 10 9 9 8 9 9 9 10 10 10 10 9 8 9 10 10 10 9 9 9 9 9 9 10 10 10 10 10 10 10 9 9 10 10 10 9 9 8 8 9 9 10 10 9 9 9 9 9 10 10 10 11 11 11 11
11 11 10 10 10 10 10 10 10 10 10 10 10 10 10 10 10 9 9 9 9 9 9 9 9 9 9 9 9 9 10 10 10 10 10 10 9 9 9 9 10 10 10 9 9 9 9 9 10 10 10 9 8 8 8 9 10 10 10 9 9 9 9 9 9 9 9 9 8 8 8 9 9 9 9 9 8 8 8 9 9 10 10 10 11 11
11 11 11 11 11 10 10 11 10 10 10 10 10 11 11 11 10 10 10 10 10 10 10 9 9 9 10 10 9 9 9 10 10 10 10 10 10 10 9 9 9 9 9 9 9 9 8 8 9 10 10 9 8 8 7 8 8 9 9 9 9 9 8 7 7 8 8 8 8 8 9 9 9 8 9 9 9 8 8 8 9 10 10 11 11 12
11 11 11 11 11 11 11 11 11 11 11 11 11 11 11 11 11 11 11 11 10 10 10 10 10 10 10 10 10 9 9 9 9 9 10 10 10 10 10 9 9 9 8 8 8 8 8 8 8 8 8 8 8 8 8 7 7 7 8 9 8 8 7 7 7 7 7 7 7 8 9 9 9 10 11 10 10 9 8 9 9 10 11 12 12 12
10 10 11 11 11 11 11 11 11 10 10 11 11 11 10 11 11 11 11 11 11 11 11 11 10 10 10 10 10 10 10 10 10 9 9 10 10 9 9 9 9 9 9 8 8 7 7 7 7 7 7 7 8 8 8 7 7 7 7 7 7 7 7 7 7 7 7 7 7 8 8 7 8 10 12 12 11 10 9 9 9 10 11 12 12 12
10 10 10 10 10 10 11 11 11 10 10 10 10 10 10 10 10 10 11 11 11 11 10 10 10 10 10 10 10 10 10 10 10 10 10 10 9 9 9 9 9 9 9 9 9 8 8 7 7 6 6 6 7 8 8 8 7 7 7 7 7 7 7 7 7 7 7 7 7 8 8 8 8 9 10 11 11 11 10 9 8 9 10 11 12 12
9 9 10 10 10 10 10 10 10 10 10 10 10 10 10 10 10 10 11 11 11 10 10 10 10 10 10 10 10 10 10 10 10 10 10 10 9 9 9 9 9 9 9 9 9 9 8 8 8 8 8 7 6 6 7 8 8 8 7 7 7 7 7 8 8 8 8 8 8 8 8 8 8 9 9 10 12 12 11 10 8 8 9 10 11 12
Height
3012 3012 3013 3013 3014 3014 3014 3015 3015 3015 3015 3016 3017 3018 3018 3018 3019 3019 3019 3020 3021 3022 3023 3023 3023 3023 3024 3024 3025 3026 3026 3027 3027 3028 3028 3029 3029 3030 3030 3031 3031 3032 3032 3033 3033 3034 3034 3035 3035 3036 3037 3037 3038 3038 3039 3040 3040 3041 3042 3042 3042 3043 3043 3044 3045 3045 3046 3046 3047 3047 3048 3049 3050 3050 3051 3052 3052 3053 3054 3055 3056 3057 3058 3059 3059 3060
3010 3011 3011 3012 3012 3012 3012 3013 3013 3013 3013 3014 3014 3015 3016 3016 3016 3017 3017 3018 3019 3020 3021 3021 3021 3022 3022 3022 3022 3023 3024 3024 3025 3026 3026 3026 3027 3027 3027 3028 3029 3029 3030 3031 3031 3032 3032 3032 3033 3033 3034 3035 3035 3036 3037 3037 3037 3038 3039 3039 3040 3040 3041 3041 3042 3042 3043 3043 3044 3045 3045 3046 3047 3047 3048 3049 3049 3050 3051 3052 3053 3053 3054 3055 3056 3057
3008 3009 3009 3010 3010 3010 3011 3011 3011 3011 3012 3012 3012 3012 3013 3013 3013 3014 3015 3015 3016 3017 3018 3019 3019 3020 3020 3020 3020 3021 3022 3022 3022 3023 3023 3024 3024 3025 3025 3026 3026 3027 3027 3028 3028 3029 3030 3030 3031 3031 3032 3032 3033 3033 3034 3034 3035 3035 3036 3036 3037 3037 3037 3038 3038 3039 3040 3040 3041 3042 3042 3043 3043 3044 3045 3046 3046 3047 3048 3049 3049 3050 3051 3052 3053 3054
3006 3007 3007 3008 3009 3009 3009 3009 3010 3010 3010 3010 3011 3011 3011 3011 3011 3011 3012 3012 3013 3014 3016 3016 3017 3017 3018 3018 3018 3019 3019 3020 3020 3021 3021 3022 3022 3023 3023 3023 3024 3024 3025 3025 3026 3027 3027 3027 3028 3028 3029 3030 3030 3031 3031 3032 3032 3032 3033 3033 3034 3034 3034 3035 3036 3036 3037 3037 3038 3039 3039 3040 3041 3041 3042 3043 3043 3044 3045 3046 3046 3047 3048 3049 3049 3050
3003 3004 3005 3006 3007 3007 3007 3008 3008 3008 3009 3009 3009 3009 3009 3009 3008 3008 3009 3010 3011 3012 3012 3013 3014 3015 3015 3016 3016 3017 3017 3017 3018 3018 3019 3020 3020 3021 3021 3021 3021 3022 3022 3022 3023 3024 3024 3025 3025 3026 3026 3027 3027 3028 3028 3029 3029 3030 3030 3030 3031 3031 3032 3032 3032 3033 3034 3034 3035 3036 3037 3037 3038 3038 3039 3040 3041 3041 3042 3042 3043 3044 3045 3045 3046 3047
2999 3001 3002 3003 3004 3005 3005 3006 3006 3007 3007 3007 3007 3007 3007 3007 3007 3006 3007 3007 3008 3009 3010 3011 3011 3012 3012 3013 3014 3014 3015 3015 3016 3017 3017 3017 3018 3018 3018 3019 3019 3019 3019 3020 3020 3021 3021 3022 3022 3023 3023 3024 3025 3026 3026 3026 3027 3027 3027 3027 3028 3028 3029 3029 3030 3030 3031 3032 3032 3033 3033 3034 3035 3036 3036 3037 3037 3038 3039 3039 3040 3041 3042 3042 3043 3043
2996 2998 2999 3001 3001 3002 3003 3003 3003 3004 3004 3005 3005 3005 3005 3005 3004 3004 3005 3005 3005 3006 3007 3008 3009 3009 3010 3010 3011 3012 3012 3013 3014 3014 3015 3015 3016 3016 3016 3016 3016 3016 3017 3017 3017 3018 3018 3019 3019 3020 3021 3022 3022 3023 3023 3024 3024 3024 3024 3025 3025 3025 3026 3026 3027 3027 3028 3028 3029 3030 3031 3031 3032 3032 3033 3034 3035 3035 3036 3037 3037 3038 3038 3039 3040 3040
2993 2994 2996 2997 2998 2999 3000 3000 3001 3001 3002 3002 3003 3003 3002 3002 3002 3002 3003 3003 3003 3004 3005 3006 3007 3007 3008 3008 3008 3009 3010 3011 3012 3012 3012 3013 3013 3013 3013 3013 3014 3014 3014 3014 3015 3015 3016 3016 3017 3017 3018 3019 3020 3021 3021 3021 3022 3022 3022 3022 3022 3022 3023 3023 3024 3024 3025 3026 3026 3027 3027 3028 3029 3029 3030 3031 3031 3032 3032 3033 3034 3034 3035 3036 3036 3037
2990 2991 2992 2994 2995 2996 2997 2997 2998 2998 2999 3000 3000 3001 3001 3000 3000 3001 3001 3001 3001 3002 3003 3005 3005 3006 3005 3006 3006 3007 3008 3009 3009 3010 3010 3010 3010 3011 3011 3011 3011 3012 3012 3012 3013 3013 3014 3014 3015 3016 3016 3017 3017 3018 3018 3018 3018 3019 3019 3019 3019 3019 3020 3020 3021 3022 3022 3023 3023 3024 3024 3025 3026 3026 3027 3027 3028 3029 3029 3030 3031 3031 3032 3032 3033 3033
2987 2988 2989 2990 2992 2993 2994 2995 2995 2996 2996 2997 2997 2998 2998 2998 2998 2999 2999 2999 2999 3000 3001 3002 3003 3003 3003 3003 3004 3005 3006 3007 3007 3007 3007 3007 3008 3008 3008 3008 3009 3009 3009 3010 3011 3011 3012 3012 3013 3013 3014 3014 3015 3015 3015 3016 3016 3016 3016 3016 3016 3017 3017 3018 3018 3019 3019 3020 3020 3021 3022 3022 3022 3023 3024 3024 3025 3026 3026 3027 3027 3028 3028 3029 3029 3030
2984 2985 2986 2987 2988 2989 2991 2991 2992 2992 2993 2994 2994 2995 2996 2996 2996 2997 2997 2997 2997 2997 2998 2999 3000 3000 3001 3001 3002 3003 3004 3004 3004 3005 3005 3005 3005 3006 3006 3006 3006 3006 3007 3007 3008 3009 3010 3010 3010 3011 3011 3012 3012 3012 3012 3012 3013 3013 3013 3013 3014 3014 3015 3015 3016 3016 3017 3017 3017 3018 3018 3019 3020 3020 3021 3021 3022 3022 3023 3023 3024 3024 3025 3026 3026 3027
2982 2982 2983 2984 2985 2986 2987 2987 2988 2989 2990 2991 2992 2992 2993 2993 2993 2994 2994 2994 2995 2995 2996 2997 2998 2998 2999 2999 3000 3001 3001 3002 3002 3002 3002 3003 3003 3003 3004 3004 3004 3004 3004 3005 3006 3007 3007 3007 3007 3008 3008 3008 3009 3009 3009 3010 3010 3010 3011 3011 3011 3012 3012 3012 3013 3013 3014 3014 3015 3015 3016 3016 3017 3017 3018 3018 3019 3019 3020 3020 3021 3022 3022 3022 3023 3024
2979 2980 2981 2982 2982 2983 2983 2984 2985 2986 2987 2988 2989 2989 2990 2990 2990 2991 2992 2992 2992 2993 2994 2995 2995 2996 2996 2996 2997 2997 2998 2999 2999 3000 3000 3000 3001 3001 3002 3002 3002 3002 3002 3002 3003 3004 3004 3004 3005 3005 3005 3005 3005 3006 3006 3007 3007 3007 3008 3008 3008 3009 3009 3010 3010 3011 3011 3012 3012 3012 3013 3013 3014 3014 3015 3015 3016 3017 3017 3017 3018 3019 3019 3020 3020 3021
2976 2977 2978 2979 2980 2981 2981 2982 2983 2984 2985 2986 2986 2987 2987 2987 2988 2989 2989 2990 2990 2991 2992 2992 2992 2992 2992 2993 2993 2994 2995 2996 2997 2997 2997 2998 2998 2998 2999 2999 2999 2999 3000 3000 3001 3001 3002 3002 3002 3002 3002 3002 3002 3003 3003 3003 3004 3004 3005 3005 3006 3006 3007 3007 3007 3008 3008 3009 3009 3009 3010 3011 3011 3012 3012 3012 3013 3014 3014 3015 3016 3016 3017 3017 3018 3018
2972 2973 2975 2976 2977 2978 2979 2980 2981 2982 2982 2983 2984 2985 2986 2987 2987 2987 2987 2988 2988 2989 2990 2990 2990 2990 2990 2990 2990 2991 2992 2993 2994 2994 2995 2995 2995 2996 2997 2997 2997 2997 2997 2998 2998 2998 2999 2999 2999 2999 2999 2999 2999 3000 3000 3000 3001 3001 3002 3002 3003 3003 3004 3004 3005 3005 3006 3006 3006 3007 3007 3008 3008 3009 3009 3010 3011 3011 3012 3012 3013 3014 3014 3015 3015 3016
2969 2970 2971 2972 2972 2974 2975 2976 2978 2979 2979 2980 2981 2982 2984 2985 2985 2985 2985 2985 2986 2987 2988 2990 2989 2988 2987 2987 2987 2988 2989 2990 2991 2991 2992 2992 2992 2993 2994 2994 2994 2995 2995 2996 2996 2996 2996 2996 2996 2996 2996 2997 2997 2997 2997 2997 2998 2998 2999 2999 3000 3000 3001 3001 3002 3002 3003 3003 3004 3004 3005 3005 3006 3006 3007 3007 3007 3008 3009 3009 3010 3011 3011 3012 3012 3012
2965 2966 2967 2968 2969 2970 2971 2972 2973 2974 2975 2976 2977 2978 2979 2980 2981 2982 2982 2982 2983 2985 2987 2987 2987 2986 2984 2984 2985 2985 2986 2987 2988 2988 2989 2990 2990 2990 2991 2991 2992 2992 2992 2993 2993 2993 2993 2993 2993 2993 2994 2994 2994 2994 2994 2995 2995 2995 2996 2996 2997 2997 2998 2998 2999 2999 3000 3000 3001 3001 3002 3002 3003 3003 3004 3004 3004 3005 3005 3006 3006 3007 3007 3008 3009 3009
2962 2962 2964 2964 2965 2966 2967 2968 2969 2970 2971 2972 2973 2973 2974 2976 2977 2977 2978 2979 2980 2982 2983 2984 2984 2983 2982 2982 2982 2982 2983 2984 2985 2986 2987 2987 2987 2987 2987 2988 2989 2990 2990 2990 2991 2991 2991 2991 2991 2991 2991 2992 2992 2992 2992 2992 2992 2992 2993 2993 2994 2994 2995 2995 2996 2996 2997 2997 2998 2999 2999 3000 3000 3000 3001 3001 3001 3002 3002 3002 3003 3003 3004 3005 3005 3006
2958 2959 2960 2961 2962 2962 2963 2964 2965 2966 2967 2968 2969 2970 2971 2972 2972 2973 2974 2975 2977 2978 2979 2980 2980 2980 2979 2979 2979 2979 2980 2982 2982 2983 2984 2984 2984 2984 2985 2986 2986 2987 2987 2988 2988 2988 2988 2988 2988 2989 2989 2989 2989 2989 2989 2989 2989 2990 2990 2990 2991 2991 2992 2992 2993 2993 2994 2995 2995 2996 2996 2997 2997 2997 2997 2998 2998 2998 2999 2999 3000 3000 3001 3001 3002 3002
2955 2956 2957 2957 2958 2959 2960 2961 2962 2963 2964 2964 2965 2966 2967 2968 2969 2970 2971 2972 2973 2975 2975 2976 2976 2976 2976 2976 2976 2976 2977 2978 2979 2980 2980 2981 2982 2982 2982 2983 2983 2984 2984 2985 2985 2985 2985 2986 2986 2986 2987 2987 2986 2986 2986 2986 2987 2987 2987 2987 2988 2988 2989 2989 2990 2991 2991 2992 2992 2993 2993 2993 2994 2994 2994 2995 2995 2996 2996 2997 2997 2997 2998 2998 2999 2999
2952 2953 2953 2954 2955 2956 2957 2957 2958 2959 2960 2961 2962 2963 2964 2965 2967 2968 2969 2970 2971 2971 2972 2972 2972 2972 2972 2973 2973 2973 2974 2975 2976 2976 2977 2977 2978 2979 2980 2980 2981 2981 2982 2982 2982 2982 2983 2983 2983 2984 2984 2984 2984 2984 2984 2984 2984 2984 2984 2985 2985 2986 2986 2987 2987 2988 2988 2989 2989 2990 2990 2990 2991 2991 2992 2992 2992 2993 2993 2994 2994 2995 2995 2995 2996 2996
2949 2949 2950 2951 2952 2952 2953 2954 2955 2956 2957 2958 2959 2960 2961 2962 2963 2964 2965 2966 2967 2967 2967 2967 2967 2968 2969 2970 2970 2970 2971 2972 2972 2972 2973 2974 2975 2976 2977 2977 2977 2978 2979 2979 2979 2980 2980 2981 2981 2981 2981 2981 2981 2981 2981 2981 2981 2981 2982 2982 2982 2983 2984 2984 2985 2985 2986 2986 2987 2987 2987 2988 2988 2988 2989 2989 2990 2990 2990 2991 2991 2992 2992 2992 2993 2993
2945 2946 2947 2947 2948 2949 2950 2951 2952 2952 2953 2954 2955 2956 2957 2958 2959 2960 2961 2962 2962 2962 2963 2963 2964 2964 2965 2966 2967 2968 2968 2968 2969 2969 2970 2971 2972 2972 2973 2974 2974 2975 2976 2976 2977 2977 2977 2978 2978 2978 2978 2979 2979 2979 2978 2978 2978 2978 2979 2979 2980 2981 2982 2982 2982 2983 2983 2983 2984 2984 2985 2985 2986 2986 2986 2986 2987 2987 2987 2988 2988 2989 2989 2989 2990 2990
2942 2943 2944 2945 2945 2946 2947 2947 2948 2949 2950 2951 2952 2953 2954 2954 2955 2956 2957 2957 2958 2958 2959 2960 2960 2961 2962 2963 2965 2966 2965 2965 2965 2966 2967 2967 2968 2969 2969 2970 2971 2972 2972 2973 2974 2974 2975 2975 2976 2976 2976 2976 2977 2976 2976 2975 2975 2976 2976 2977 2978 2978 2979 2979 2980 2980 2980 2981 2981 2982 2982 2982 2983 2983 2983 2984 2984 2984 2985 2985 2986 2986 2986 2986 2987 2987
2939 2940 2941 2941 2942 2943 2943 2944 2945 2946 2947 2948 2949 2950 2950 2951 2952 2952 2953 2953 2954 2954 2955 2956 2957 2958 2959 2961 2962 2963 2962 2961 2962 2962 2963 2964 2965 2966 2966 2967 2967 2968 2969 2970 2971 2971 2972 2972 2973 2973 2974 2974 2974 2973 2973 2972 2973 2973 2974 2975 2976 2976 2977 2977 2977 2977 2978 2978 2979 2979 2980 2980 2980 2981 2981 2981 2981 2982 2982 2982 2982 2983 2983 2983 2983 2983
2936 2937 2937 2938 2939 2939 2940 2941 2942 2943 2944 2945 2946 2946 2947 2948 2948 2949 2950 2951 2951 2952 2952 2953 2954 2956 2957 2958 2960 2960 2958 2958 2958 2959 2960 2961 2962 2962 2962 2963 2964 2965 2966 2967 2967 2968 2969 2970 2971 2971 2971 2971 2971 2970 2970 2970 2970 2971 2972 2972 2973 2974 2974 2974 2974 2975 2975 2976 2976 2977 2977 2977 2978 2978 2978 2978 2978 2979 2979 2979 2979 2980 2980 2980 2980 2980
2932 2933 2934 2934 2935 2936 2937 2938 2940 2941 2941 2942 2942 2942 2943 2944 2945 2946 2947 2947 2948 2949 2950 2951 2952 2953 2954 2956 2957 2956 2955 2955 2955 2956 2957 2958 2959 2959 2959 2959 2961 2962 2963 2964 2964 2965 2966 2967 2967 2968 2968 2968 2967 2967 2967 2968 2968 2969 2970 2970 2971 2971 2971 2971 2972 2972 2972 2973 2974 2974 2975 2975 2975 2975 2975 2976 2976 2976 2976 2976 2976 2977 2977 2977 2977 2977
2929 2929 2930 2931 2932 2933 2935 2936 2937 2937 2937 2937 2938 2939 2940 2941 2942 2943 2944 2944 2945 2947 2948 2949 2950 2951 2952 2953 2953 2953 2952 2952 2952 2952 2953 2955 2956 2956 2956 2957 2957 2959 2960 2960 2961 2962 2963 2964 2964 2965 2965 2965 2965 2965 2965 2966 2966 2967 2967 2968 2968 2968 2968 2969 2969 2970 2970 2971 2972 2972 2972 2972 2972 2972 2972 2973 2973 2973 2973 2973 2973 2973 2973 2973 2974 2974
2926 2926 2927 2928 2929 2931 2932 2932 2933 2933 2933 2934 2934 2936 2937 2938 2939 2940 2941 2941 2942 2944 2945 2946 2947 2948 2949 2950 2950 2950 2950 2949 2949 2949 2950 2952 2952 2952 2953 2954 2955 2956 2957 2957 2958 2959 2960 2961 2961 2962 2962 2962 2962 2963 2963 2964 2964 2964 2965 2965 2966 2966 2966 2967 2967 2967 2968 2968 2969 2969 2969 2970 2970 2970 2970 2970 2970 2970 2970 2970 2970 2970 2970 2970 2970 2971
2923 2923 2924 2925 2926 2927 2928 2929 2929 2930 2930 2931 2932 2933 2934 2936 2937 2937 2938 2938 2939 2940 2941 2942 2943 2944 2945 2947 2947 2947 2946 2946 2946 2947 2947 2949 2949 2950 2950 2951 2952 2952 2953 2954 2955 2956 2957 2958 2958 2958 2959 2960 2960 2961 2961 2962 2962 2962 2962 2963 2963 2963 2964 2964 2965 2965 2966 2966 2966 2967 2967 2967 2967 2967 2967 2967 2967 2967 2967 2967 2967 2967 2967 2967 2967 2967
2920 2921 2921 2922 2923 2924 2925 2926 2926 2927 2928 2929 2929 2931 2932 2933 2933 2934 2934 2935 2936 2937 2937 2938 2939 2940 2942 2943 2944 2944 2942 2942 2942 2943 2945 2946 2947 2947 2948 2948 2948 2949 2950 2951 2952 2952 2953 2955 2956 2956 2956 2957 2958 2958 2959 2959 2959 2960 2960 2961 2961 2961 2962 2962 2962 2963 2963 2963 2964 2964 2964 2964 2964 2965 2965 2965 2965 2964 2964 2964 2964 2963 2963 2963 2964 2964
2917 2917 2918 2919 2920 2921 2922 2922 2923 2924 2925 2926 2927 2928 2928 2929 2930 2931 2931 2932 2932 2933 2934 2934 2935 2937 2938 2939 2940 2940 2939 2939 2940 2941 2942 2943 2944 2944 2945 2945 2946 2946 2947 2947 2948 2949 2950 2951 2953 2954 2954 2955 2955 2956 2957 2957 2957 2957 2958 2958 2959 2959 2959 2959 2960 2960 2960 2961 2961 2961 2961 2962 2962 2962 2962 2962 2962 2962 2962 2961 2961 2960 2960 2960 2960 2961
2914 2915 2915 2916 2917 2918 2919 2920 2921 2922 2922 2923 2924 2924 2925 2926 2927 2927 2927 2928 2929 2929 2930 2931 2932 2933 2934 2936 2937 2937 2937 2937 2937 2937 2939 2940 2940 2941 2942 2942 2943 2943 2944 2944 2945 2946 2947 2948 2949 2951 2952 2952 2953 2954 2954 2955 2955 2955 2955 2956 2956 2957 2957 2957 2957 2957 2957 2958 2958 2958 2958 2958 2958 2959 2959 2959 2959 2959 2958 2958 2958 2957 2957 2957 2957 2957
2911 2912 2913 2913 2914 2915 2916 2917 2918 2918 2919 2920 2920 2921 2922 2922 2923 2923 2924 2925 2926 2927 2927 2928 2929 2930 2932 2932 2933 2934 2934 2934 2934 2934 2935 2936 2937 2938 2939 2939 2940 2941 2941 2941 2942 2943 2944 2945 2946 2947 2949 2950 2951 2952 2952 2952 2952 2952 2953 2953 2954 2954 2955 2955 2954 2954 2955 2955 2955 2955 2955 2955 2955 2955 2955 2956 2956 2956 2956 2956 2955 2955 2954 2954 2954 2954
2909 2909 2910 2911 2912 2912 2913 2914 2915 2916 2916 2917 2917 2917 2918 2919 2920 2920 2921 2922 2923 2924 2925 2926 2927 2927 2928 2929 2930 2931 2931 2931 2931 2931 2932 2933 2934 2935 2936 2936 2937 2937 2938 2938 2939 2940 2941 2942 2943 2944 2945 2947 2948 2949 2950 2950 2950 2950 2951 2951 2952 2952 2952 2952 2952 2952 2952 2952 2952 2952 2952 2952 2952 2952 2952 2952 2952 2952 2953 2953 2952 2952 2952 2951 2951 2950
2906 2907 2907 2908 2909 2910 2911 2911 2912 2913 2913 2913 2914 2914 2915 2916 2917 2918 2919 2919 2920 2921 2922 2923 2923 2924 2925 2926 2927 2928 2928 2928 2928 2928 2929 2929 2930 2931 2932 2933 2934 2935 2935 2936 2936 2937 2937 2938 2940 2941 2942 2943 2945 2946 2947 2947 2947 2948 2948 2949 2949 2949 2949 2949 2949 2949 2949 2949 2949 2949 2949 2949 2949 2949 2949 2949 2949 2950 2950 2950 2950 2949 2949 2948 2948 2947
2904 2905 2905 2906 2907 2907 2908 2909 2909 2910 2910 2911 2912 2912 2913 2913 2914 2915 2916 2917 2917 2918 2919 2920 2921 2922 2922 2923 2924 2925 2925 2925 2925 2925 2926 2926 2927 2928 2929 2930 2931 2932 2932 2932 2933 2934 2934 2935 2936 2937 2939 2940 2941 2942 2943 2944 2945 2945 2946 2946 2947 2947 2946 2946 2946 2946 2946 2946 2947 2947 2947 2946 2946 2946 2946 2947 2947 2947 2947 2947 2947 2947 2946 2946 2945 2945
2902 2902 2903 2903 2904 2905 2905 2906 2907 2907 2908 2908 2909 2910 2910 2911 2912 2912 2913 2914 2915 2915 2916 2917 2918 2919 2919 2920 2921 2922 2922 2923 2923 2923 2923 2923 2924 2925 2926 2927 2928 2929 2929 2930 2930 2931 2932 2932 2933 2934 2936 2937 2938 2939 2940 2941 2942 2942 2943 2943 2943 2943 2943 2943 2943 2943 2943 2943 2943 2943 2943 2943 2943 2943 2943 2944 2944 2944 2944 2944 2944 2944 2943 2943 2942 2942
2900 2901 2901 2901 2902 2902 2903 2903 2904 2905 2906 2906 2907 2907 2907 2908 2909 2909 2910 2911 2912 2912 2913 2914 2915 2916 2917 2917 2918 2919 2920 2920 2920 2921 2921 2921 2922 2922 2923 2924 2925 2926 2926 2927 2927 2928 2928 2929 2930 2931 2932 2933 2934 2935 2936 2937 2938 2939 2940 2940 2941 2941 2941 2940 2940 2940 2940 2940 2940 2940 2940 2940 2940 2940 2941 2941 2941 2941 2941 2942 2941 2941 2940 2940 2940 2939
2897 2898 2899 2899 2899 2900 2900 2901 2902 2902 2903 2903 2904 2905 2905 2906 2906 2907 2907 2908 2909 2910 2911 2912 2912 2913 2914 2915 2916 2916 2917 2917 2918 2918 2918 2918 2919 2919 2920 2921 2922 2922 2923 2924 2924 2925 2926 2926 2927 2928 2929 2930 2931 2932 2933 2934 2935 2936 2936 2937 2938 2938 2938 2937 2937 2937 2937 2937 2937 2937 2937 2937 2937 2937 2937 2938 2938 2938 2938 2939 2938 2938 2938 2937 2937 2937
2895 2896 2896 2897 2897 2897 2898 2899 2899 2900 2901 2901 2902 2902 2903 2903 2904 2904 2905 2906 2906 2907 2908 2909 2909 2910 2911 2912 2913 2913 2914 2915 2915 2916 2916 2916 2917 2917 2917 2918 2919 2919 2920 2921 2921 2922 2922 2923 2924 2925 2926 2926 2927 2928 2929 2930 2931 2932 2932 2933 2934 2934 2935 2935 2934 2934 2934 2934 2934 2934 2934 2934 2934 2935 2935 2935 2935 2935 2935 2935 2935 2935 2935 2934 2934 2933
2893 2893 2894 2894 2895 2895 2896 2897 2897 2898 2898 2899 2899 2900 2901 2901 2902 2902 2902 2903 2904 2904 2905 2906 2907 2907 2908 2909 2910 2911 2912 2912 2913 2913 2913 2914 2914 2914 2915 2915 2916 2917 2917 2918 2918 2919 2920 2920 2921 2922 2922 2923 2924 2925 2926 2927 2927 2928 2929 2929 2930 2931 2931 2932 2932 2931 2931 2932 2932 2932 2932 2932 2932 2932 2932 2932 2932 2932 2932 2932 2932 2932 2932 2932 2931 2931
2890 2891 2891 2892 2892 2892 2893 2894 2895 2895 2896 2896 2897 2897 2898 2898 2899 2900 2900 2901 2902 2902 2902 2903 2904 2905 2906 2906 2907 2908 2908 2909 2910 2910 2911 2911 2911 2912 2912 2912 2913 2914 2914 2915 2916 2916 2917 2917 2918 2919 2919 2920 2920 2921 2922 2923 2924 2924 2925 2925 2926 2926 2927 2928 2928 2929 2928 2928 2928 2929 2928 2929 2929 2929 2930 2930 2930 2930 2930 2929 2929 2929 2929 2928 2928 2927
2887 2888 2888 2889 2889 2890 2891 2891 2892 2892 2893 2894 2894 2895 2895 2896 2897 2897 2898 2898 2899 2899 2900 2901 2901 2902 2903 2904 2904 2905 2906 2906 2907 2907 2908 2908 2908 2909 2909 2910 2910 2911 2912 2912 2913 2913 2914 2915 2915 2916 2916 2917 2917 2918 2919 2920 2921 2921 2921 2921 2922 2922 2923 2924 2925 2925 2925 2925 2926 2926 2926 2926 2926 2926 2927 2927 2927 2927 2927 2927 2927 2926 2926 2925 2925 2924
2885 2886 2886 2887 2887 2887 2888 2888 2889 2890 2890 2891 2892 2892 2892 2893 2894 2894 2895 2896 2896 2897 2897 2898 2899 2899 2900 2901 2902 2902 2902 2903 2903 2904 2905 2905 2906 2906 2907 2907 2907 2908 2908 2909 2910 2910 2911 2912 2912 2912 2913 2913 2914 2915 2916 2917 2917 2917 2917 2918 2918 2918 2919 2920 2921 2922 2922 2922 2922 2922 2922 2922 2923 2923 2924 2924 2925 2925 2925 2924 2924 2923 2922 2922 2922 2921
2883 2883 2883 2884 2884 2885 2885 2886 2886 2887 2887 2888 2889 2889 2890 2890 2891 2892 2892 2893 2893 2894 2895 2895 2896 2897 2897 2898 2899 2900 2900 2900 2901 2901 2902 2902 2902 2903 2903 2904 2904 2905 2905 2906 2907 2907 2908 2908 2909 2909 2910 2911 2911 2912 2912 2913 2913 2914 2914 2914 2915 2915 2916 2917 2917 2917 2918 2918 2919 2919 2919 2919 2919 2920 2920 2921 2922 2922 2922 2921 2921 2920 2920 2919 2919 2918
2880 2881 2881 2881 2882 2882 2882 2883 2884 2884 2885 2885 2886 2886 2887 2887 2888 2889 2889 2890 2891 2891 2892 2892 2893 2894 2895 2896 2896 2897 2897 2897 2898 2898 2898 2899 2899 2900 2900 2901 2901 2902 2902 2903 2903 2904 2905 2905 2906 2906 2907 2907 2908 2909 2909 2909 2910 2910 2910 2911 2911 2912 2912 2913 2913 2914 2914 2914 2915 2915 2916 2916 2916 2916 2917 2917 2917 2918 2918 2918 2918 2917 2917 2917 2916 2916
2878 2878 2878 2879 2879 2879 2880 2880 2881 2882 2882 2882 2883 2883 2884 2884 2885 2886 2886 2887 2888 2888 2889 2890 2891 2891 2892 2893 2893 2894 2894 2895 2895 2896 2896 2896 2897 2897 2897 2897 2898 2899 2899 2900 2900 2901 2901 2902 2902 2903 2904 2904 2905 2905 2906 2906 2906 2907 2907 2907 2908 2909 2909 2910 2910 2910 2911 2911 2911 2912 2912 2912 2912 2912 2912 2913 2914 2915 2915 2915 2915 2915 2914 2914 2913 2913
2875 2876 2876 2876 2877 2877 2877 2877 2878 2879 2879 2880 2880 2881 2881 2881 2882 2883 2883 2884 2885 2885 2886 2887 2887 2888 2889 2890 2890 2891 2892 2892 2893 2893 2893 2894 2894 2894 2894 2895 2895 2896 2896 2897 2897 2897 2898 2899 2899 2900 2901 2901 2902 2902 2902 2903 2903 2903 2904 2904 2905 2905 2906 2906 2907 2907 2907 2907 2907 2908 2908 2908 2908 2908 2908 2909 2910 2911 2912 2912 2912 2912 2912 2911 2910 2910
2872 2873 2873 2873 2874 2874 2874 2875 2875 2876 2876 2877 2877 2878 2878 2878 2879 2880 2880 2881 2882 2882 2883 2884 2885 2885 2886 2887 2887 2888 2889 2889 2890 2891 2891 2891 2891 2892 2892 2892 2892 2893 2893 2893 2894 2895 2895 2896 2896 2897 2897 2897 2898 2898 2899 2899 2900 2900 2901 2901 2902 2902 2902 2903 2903 2903 2903 2903 2904 2904 2904 2904 2904 2904 2905 2905 2906 2907 2908 2909 2909 2909 2909 2908 2907 2907
2869 2870 2870 2870 2871 2871 2872 2872 2872 2873 2874 2874 2875 2875 2875 2876 2876 2877 2877 2878 2879 2880 2880 2881 2882 2882 2883 2884 2884 2885 2886 2886 2887 2888 2888 2888 2889 2889 2889 2889 2890 2890 2890 2891 2891 2892 2892 2893 2893 2894 2894 2894 2894 2895 2895 2896 2896 2897 2897 2897 2898 2898 2899 2899 2899 2900 2900 2900 2900 2900 2900 2901 2901 2901 2901 2901 2902 2903 2904 2905 2906 2906 2906 2905 2905 2904